Weather Roundup
Issued by NWS

Home | Current Version | Previous Version | Text Only | Print | Product List | Glossary On
Versions: 1 2 3 4 5 6 7 8 9 10 11 12 13 14 15 16 17 18 19 20 21 22 23 24 25 26 27 28 29 30 31 32 33 34 35 36 37 38 39 40 41 42 43 44 45 46 47 48 49 50
000
NZUS93 KARX 040859
HRRWXR

CURRENT HOURLY OBSERVATIONS ACROSS
MUCH OF THE UPPER MISSISSIPPI VALLEY
NATIONAL WEATHER SERVICE LA CROSSE WI
400 AM CDT MON MAY 04 2015


...SOUTHEAST MINNESOTA...


CITY           SKY/WX    TMP DP  RH WIND       PRES   REMARKS
ROCHESTER      PTCLDY    52  50  93 N8        30.00R
ROCHESTER/MAYO FAIR      55  53  94 NW3       29.99R
WINONA         MOCLDY    57  55  94 N6        29.97R
AUSTIN         PTCLDY    54  50  87 N5        29.98R
ALBERT LEA     PTCLDY    54  48  82 N6        29.99R
DODGE CENTER   CLEAR     52  48  87 N7        29.99R
PRESTON        MOCLDY    54  53  96 N8        29.96R
OWATONNA       PTCLDY    52  45  76 N6        30.00R
FARIBAULT      CLEAR     54  45  71 N6        30.01R
$$

...ELSEWHERE IN MINNESOTA...


CITY           SKY/WX    TMP DP  RH WIND       PRES   REMARKS
MINNEAPOLIS    MOCLDY    55  37  50 N14       30.02R
INTNL FALLS    NOT AVBL
DULUTH         NOT AVBL
RED WING       CLEAR     55  39  54 N5        29.98R
REDWOOD FALLS  CLEAR     52  30  43 N7        30.04R
MANKATO          N/A    N/A N/A N/A MISG        N/A
WORTHINGTON    CLEAR     48  27  43 N10       30.04S
FAIRMONT       PTCLDY    54  34  47 N10       30.01R
$$

...SOUTHWEST WISCONSIN...


CITY           SKY/WX    TMP DP  RH WIND       PRES   REMARKS
LA CROSSE      CLOUDY    60  58  92 NW7       29.94R
PRAIRIE DU CHI CLOUDY    57  56  95 CALM      29.93R
BOSCOBEL       FOG       56  55  97 CALM      29.93R VSB 3/4
LONE ROCK      NOT AVBL
PLATTEVILLE    CLOUDY    58  56  96 SE8       29.92R
FORT MC COY    CLOUDY    58  57  97 NW3       29.94R
VIROQUA        CLOUDY    56  56 100 N7        29.93R
WIS DELLS      NOT AVBL
$$

...ELSEWHERE IN WISCONSIN...


CITY           SKY/WX    TMP DP  RH WIND       PRES   REMARKS
MILWAUKEE      CLOUDY    63  53  70 VRB3      29.89S
MADISON        CLOUDY    59  56  89 S7        29.90S
GREEN BAY      CLOUDY    58  57  97 S5        29.88R
EAU CLAIRE     NOT AVBL
BLACK RVR FLS  FAIR      57  57 100 CALM      29.94R FOG
MEDFORD        MOCLDY    51  48  92 N7        29.94R
WAUSAU         CLOUDY    54  52  93 N5        29.92R
WIS RAPIDS     CLOUDY    56  54  93 N3        29.94R
MARSHFIELD     CLOUDY    54  54 100 NW3       29.92S FOG
RICE LAKE      CLEAR     52  38  57 N9        30.00R
$$

...NORTHEAST IOWA...


CITY           SKY/WX    TMP DP  RH WIND       PRES   REMARKS
DECORAH        FOG       57  57 100 SW5       29.95R VSB 1/2
MASON CITY     MOCLDY    55  52  89 N8        29.98R
CHARLES CITY   CLOUDY    57  57 100 N7        29.95R
OELWEIN        CLOUDY    59  59 100 VRB5      29.95R
$$

...ELSEWHERE IN IOWA...


CITY           SKY/WX    TMP DP  RH WIND       PRES   REMARKS
DES MOINES     CLOUDY    64  54  69 E10       29.92R
IOWA CITY      CLOUDY    60  58  92 E3        29.97R
FORT DODGE     CLOUDY    57  50  77 E8        29.95R
$$

...NORTHERN ILLINOIS...


CITY           SKY/WX    TMP DP  RH WIND       PRES   REMARKS
CHICAGO-OHARE  CLOUDY    62  52  69 W6        29.93S
CHICAGO-MIDWAY CLOUDY    66  51  58 SW12      29.94S
MOLINE         CLOUDY    60  57  89 SE8       29.94F
ROCKFORD       CLOUDY    61  55  81 SW3       29.91F
PEORIA         LGT RAIN  68  53  58 N5        29.98R
$$

NOTE: "FAIR" INDICATES FEW OR NO CLOUDS BELOW 12,000 FEET WITH NO
SIGNIFICANT WEATHER AND/OR OBSTRUCTIONS TO VISIBILITY. WIND
SPEEDS ARE IN MILES-PER-HOUR.



USA.gov is the U.S. government's official web portal to all federal, state and local government web resources and services.